CBERS 4

Last updated on Fri Oct 04 2024 00:02:25 GMT+0000 (Coordinated Universal Time)

1 40336U 14079A 24277.57611041 -.00000013 00000+0 10150-4 0 9999 2 40336 98.3897 343.0234 0001387 61.9256 298.2070 14.35482313514775
UTC large
Height (km)
Speed (km/s)
/
Latitude / Longitude
Inclination (degrees)
Orbital Period (minutes)
Azimuth
Elevation
Range (km)
Doppler Factor

Next 0 passes for location: London (51.5072 / 0.1276)

Sorry there are no passes over London.